Flagstaff, AZ

3:20 PM MST on August 23, 2016 (GMT -0700)
Flagstaff Pulliam

Weather History for KFLG - April, 2013

Change the Weather History Date:

Wednesday, April 24, 2013

  Actual Average Record
Temperature  
Mean Temperature 44 °F 46 °F  
Max Temperature 65 °F 61 °F 77 °F (1949)
Min Temperature 22 °F 30 °F 10 °F (1900)
Degree Days  
Heating Degree Days 21 19  
Month to date heating degree days 520 539  
Since 1 July heating degree days 6156 6246  
Cooling Degree Days 0 0  
Month to date cooling degree days 0 0  
Year to date cooling degree days 0 0  
Moisture  
Dew Point 13 °F    
Average Humidity 32    
Maximum Humidity 48    
Minimum Humidity 15    
Precipitation  
Precipitation 0.00 in 0.03 in 1.01 in (1990)
Month to date precipitation 0.12 0.98  
Year to date precipitation 5.00 7.31  
Snow  
Snow 0.00 in 0.20 in 4.90 in (1994)
Month to date snowfall 1.4 6.0  
Since 1 July snowfall 69.7 99.9  
Snow Depth 0.00 in    
Sea Level Pressure  
Sea Level Pressure 29.96 in    
Wind  
Wind Speed 6 mph (SW)    
Max Wind Speed 23 mph    
Max Gust Speed 28 mph    
Visibility 10 miles    
Events      
T = Trace of Precipitation, MM = Missing Value Source: NWS Daily Summary

Daily Weather History Graph

Daily Weather History Graph

Search for Another Location

Airport or City:

Trip Planner

Search our weather history database for the weather conditions in past years. The results will help you decide how hot, cold, wet, or windy it might be!

Date:

Astronomy

Apr. 24, 2013 Rise Set
Actual Time 5:43 AM MST 7:06 PM MST
Civil Twilight 5:16 AM MST 7:33 PM MST
Nautical Twilight 4:44 AM MST 8:05 PM MST
Astronomical Twilight 4:11 AM MST 8:39 PM MST
Moon 6:15 PM MST (4/24) 4:46 AM MST (4/24)
Length of Visible Light 14h 17m
Length of Day
13h 23m
Waxing Gibbous, 98% of the Moon is Illuminated
Apr 24
Waxing Gibbous
Apr 25
Full
May 2
Last Quarter
May 9
New
May 17
First Quarter

Hourly Weather History & Observations

Time (MST) Temp. Windchill Dew Point Humidity Pressure Visibility Wind Dir Wind Speed Gust Speed Precip Events Conditions
12:57 AM 25.0 °F - 3.0 °F 39% 29.97 in 10.0 mi Calm Calm - N/A   Clear
1:57 AM 24.1 °F - 3.0 °F 40% 29.96 in 10.0 mi Calm Calm - N/A   Clear
2:57 AM 24.1 °F - 3.0 °F 40% 29.95 in 10.0 mi Calm Calm - N/A   Clear
3:57 AM 21.9 °F - 1.9 °F 42% 29.94 in 10.0 mi Calm Calm - N/A   Clear
4:57 AM 21.9 °F - 1.9 °F 42% 29.96 in 10.0 mi Calm Calm - N/A   Clear
5:57 AM 24.1 °F - 3.0 °F 40% 29.97 in 10.0 mi Calm Calm - N/A   Clear
6:57 AM 35.1 °F - 8.1 °F 33% 29.96 in 10.0 mi Calm Calm - N/A   Clear
7:57 AM 51.1 °F - 7.0 °F 17% 29.95 in 10.0 mi SW 9.2 mph - N/A   Clear
8:57 AM 57.0 °F - 15.1 °F 19% 29.95 in 10.0 mi WSW 16.1 mph 20.7 mph N/A   Clear
9:14 AM 57.2 °F - 15.8 °F 20% 30.11 in 10.0 mi WSW 16.1 mph 24.2 mph N/A   Partly Cloudy
9:57 AM 59.0 °F - 14.0 °F 17% 29.97 in 10.0 mi SW 13.8 mph 25.3 mph N/A   Clear
10:57 AM 61.0 °F - 15.1 °F 17% 29.97 in 10.0 mi SW 16.1 mph 23.0 mph N/A   Clear
11:15 AM 62.6 °F - 15.8 °F 16% 30.12 in 10.0 mi SSW 13.8 mph 24.2 mph N/A   Partly Cloudy
11:57 AM 62.1 °F - 16.0 °F 17% 29.98 in 10.0 mi SSW 17.3 mph 25.3 mph N/A   Clear
12:57 PM 64.0 °F - 16.0 °F 16% 29.97 in 10.0 mi SW 13.8 mph 25.3 mph N/A   Clear
1:57 PM 62.1 °F - 15.1 °F 16% 29.98 in - WSW 10.4 mph 21.9 mph N/A   Clear
2:57 PM 63.0 °F - 16.0 °F 16% 29.96 in 10.0 mi SW 8.1 mph 23.0 mph N/A   Clear
3:57 PM 62.1 °F - 17.1 °F 18% 29.96 in 10.0 mi SSW 10.4 mph 17.3 mph N/A   Clear
4:57 PM 60.1 °F - 16.0 °F 18% 29.97 in 10.0 mi SSW 13.8 mph - N/A   Clear
5:57 PM 60.1 °F - 16.0 °F 18% 29.96 in 10.0 mi South 11.5 mph 20.7 mph N/A   Clear
6:57 PM 55.9 °F - 16.0 °F 21% 29.94 in 10.0 mi South 5.8 mph - N/A   Partly Cloudy
7:57 PM 50.0 °F - 18.0 °F 28% 29.90 in 10.0 mi Calm Calm - N/A   Clear
8:57 PM 46.0 °F 44.8 °F 19.0 °F 34% 29.91 in 10.0 mi WSW 3.5 mph - N/A   Clear
9:57 PM 45.0 °F - 19.9 °F 37% 29.91 in 10.0 mi Calm Calm - N/A   Clear
10:57 PM 37.9 °F - 19.0 °F 47% 29.92 in 10.0 mi Calm Calm - N/A   Clear
11:57 PM 36.0 °F - 19.0 °F 50% 29.91 in 10.0 mi Calm Calm - N/A   Clear